Tracking 19575 objects as of 19-Feb-2019
HD Live streaming from Space Station
objects crossing your sky now

METEOR 2-5 DEB

Track METEOR 2-5 DEB now!
10-day predictions


NORAD ID: 38274
Int'l Code: 1979-095BU
Perigee: 822.0 km
Apogee: 854.3 km
Inclination: 81.2 °
Period: 101.5 minutes
Semi major axis: 7209 km
RCS: 0.003 m2 (small)
Launch date: October 31, 1979
Source: Commonwealth of Independent States (former USSR) (CIS)
Launch site: PLESETSK MISSILE AND SPACE COMPLEX (PKMTR)

Note: This is SATELLITE DEBRIS
aabbcc
Your satellite tracking list
Your tracking list is empty




NASA's NSSDC Master Catalog

Two Line Element Set (TLE):
1 38274U 79095BU  19046.92936319 +.00000720 +00000-0 +34290-3 0  9996
2 38274 081.2011 280.3976 0022365 169.7245 190.4392 14.18322256230597
Source of the keplerian elements: AFSPC